Location: Unspecified
(0.0000°N, 0.0000°E)
Time: 11:33:54
(UTC+02:00)

Ariane H10+ - Visible Passes

Search period start: 24 October 2014 00:00
Search period end: 02 November 2014 23:00
Orbit: 320 x 31814 km, 7.0° (Epoch: 23 October)

Date Brightness Start Highest point End Pass type
(mag) Time Alt. Az. Time Alt. Az. Time Alt. Az.
24 Oct 7.0 04:57:48 58° WNW 05:07:52 81° N 13:26:25 10° E visible
26 Oct 7.2 02:26:47 64° ENE 02:26:47 64° ENE 10:43:34 10° E visible
26 Oct 4.5 20:32:29 10° W 20:34:32 24° WNW 20:34:32 24° WNW visible
28 Oct 8.0 00:55:37 26° E 00:55:37 26° E 08:48:44 10° E visible
29 Oct 7.4 04:48:50 35° WNW 05:19:49 86° NNE 13:21:56 10° E visible
31 Oct 7.1 03:17:25 74° NW 03:20:51 79° N 11:41:58 10° E visible
02 Nov 7.6 01:45:51 49° ENE 01:45:51 49° ENE 09:56:06 10° E visible
02 Nov 2.7 19:47:10 10° W 19:52:12 52° NNW 19:52:50 39° NE visible
